owner,sensor,date,latitude,longitude,vertical_datum,sea_water_practical_salinity,qcFlag 
SCCF RECON,ioos:station:SCCF:56:1,2017-02-01T00:00:00Z,26.4645,-82.1044,1.36,32.92,1111122 
SCCF RECON,ioos:station:SCCF:56:1,2017-02-01T01:00:00Z,26.4645,-82.1044,1.324,32.92,1111122 
SCCF RECON,ioos:station:SCCF:56:1,2017-02-01T02:00:00Z,26.4645,-82.1044,1.251,32.96,1111122 
SCCF RECON,ioos:station:SCCF:56:1,2017-02-01T03:00:00Z,26.4645,-82.1044,1.226,32.99,1111122 
SCCF RECON,ioos:station:SCCF:56:1,2017-02-01T04:00:00Z,26.4645,-82.1044,1.292,32.99,1111122 
SCCF RECON,ioos:station:SCCF:56:1,2017-02-01T05:00:00Z,26.4645,-82.1044,1.409,32.86,1111122 
SCCF RECON,ioos:station:SCCF:56:1,2017-02-01T06:00:00Z,26.4645,-82.1044,1.54,32.8,1111122 
SCCF RECON,ioos:station:SCCF:56:1,2017-02-01T07:00:00Z,26.4645,-82.1044,1.63,32.87,1111122 
SCCF RECON,ioos:station:SCCF:56:1,2017-02-01T08:00:00Z,26.4645,-82.1044,1.689,32.74,1111122 
SCCF RECON,ioos:station:SCCF:56:1,2017-02-01T09:00:00Z,26.4645,-82.1044,1.699,32.58,1111122 
SCCF RECON,ioos:station:SCCF:56:1,2017-02-01T10:00:00Z,26.4645,-82.1044,1.64,32.66,1111122 
SCCF RECON,ioos:station:SCCF:56:1,2017-02-01T11:00:00Z,26.4645,-82.1044,1.538,32.69,1111122 
SCCF RECON,ioos:station:SCCF:56:1,2017-02-01T12:00:00Z,26.4645,-82.1044,1.41,32.78,1111122 
SCCF RECON,ioos:station:SCCF:56:1,2017-02-01T13:00:00Z,26.4645,-82.1044,1.338,32.85,1111122 
SCCF RECON,ioos:station:SCCF:56:1,2017-02-01T14:00:00Z,26.4645,-82.1044,1.25,32.93,1111122 
SCCF RECON,ioos:station:SCCF:56:1,2017-02-01T15:00:00Z,26.4645,-82.1044,1.176,33.0,1111122 
SCCF RECON,ioos:station:SCCF:56:1,2017-02-01T16:00:00Z,26.4645,-82.1044,1.188,33.01,1111122 
SCCF RECON,ioos:station:SCCF:56:1,2017-02-01T17:00:00Z,26.4645,-82.1044,1.301,32.88,1111122 
SCCF RECON,ioos:station:SCCF:56:1,2017-02-01T18:00:00Z,26.4645,-82.1044,1.441,32.74,1111122 
SCCF RECON,ioos:station:SCCF:56:1,2017-02-01T19:00:00Z,26.4645,-82.1044,1.543,32.63,1111122 
SCCF RECON,ioos:station:SCCF:56:1,2017-02-01T20:00:00Z,26.4645,-82.1044,1.643,32.57,1111122 
SCCF RECON,ioos:station:SCCF:56:1,2017-02-01T21:00:00Z,26.4645,-82.1044,1.718,32.56,1111122 
SCCF RECON,ioos:station:SCCF:56:1,2017-02-01T22:00:00Z,26.4645,-82.1044,1.74,32.58,1111122 
SCCF RECON,ioos:station:SCCF:56:1,2017-02-01T23:00:00Z,26.4645,-82.1044,1.64,32.58,1111122 
SCCF RECON,ioos:station:SCCF:56:1,2017-02-02T00:00:00Z,26.4645,-82.1044,1.502,32.63,1111122 
SCCF RECON,ioos:station:SCCF:56:1,2017-02-02T01:00:00Z,26.4645,-82.1044,1.4,32.75,1111122 
SCCF RECON,ioos:station:SCCF:56:1,2017-02-02T02:00:00Z,26.4645,-82.1044,1.331,32.79,1111122 
SCCF RECON,ioos:station:SCCF:56:1,2017-02-02T03:00:00Z,26.4645,-82.1044,1.27,32.84,1111122 
SCCF RECON,ioos:station:SCCF:56:1,2017-02-02T04:00:00Z,26.4645,-82.1044,1.24,32.92,1111122 
SCCF RECON,ioos:station:SCCF:56:1,2017-02-02T05:00:00Z,26.4645,-82.1044,1.29,32.89,1111122 
SCCF RECON,ioos:station:SCCF:56:1,2017-02-02T06:00:00Z,26.4645,-82.1044,1.4,32.73,1111122 
SCCF RECON,ioos:station:SCCF:56:1,2017-02-02T07:00:00Z,26.4645,-82.1044,1.51,32.7,1111122 
SCCF RECON,ioos:station:SCCF:56:1,2017-02-02T08:00:00Z,26.4645,-82.1044,1.564,32.66,1111122 
SCCF RECON,ioos:station:SCCF:56:1,2017-02-02T09:00:00Z,26.4645,-82.1044,1.619,32.59,1111122 
SCCF RECON,ioos:station:SCCF:56:1,2017-02-02T10:00:00Z,26.4645,-82.1044,1.631,32.54,1111122 
SCCF RECON,ioos:station:SCCF:56:1,2017-02-02T11:00:00Z,26.4645,-82.1044,1.592,32.55,1111122 
SCCF RECON,ioos:station:SCCF:56:1,2017-02-02T12:00:00Z,26.4645,-82.1044,1.5,32.58,1111122 
SCCF RECON,ioos:station:SCCF:56:1,2017-02-02T13:00:00Z,26.4645,-82.1044,1.4,32.68,1111122 
SCCF RECON,ioos:station:SCCF:56:1,2017-02-02T14:00:00Z,26.4645,-82.1044,1.31,32.79,1111122 
SCCF RECON,ioos:station:SCCF:56:1,2017-02-02T15:00:00Z,26.4645,-82.1044,1.24,32.87,1111122 
SCCF RECON,ioos:station:SCCF:56:1,2017-02-02T16:00:00Z,26.4645,-82.1044,1.203,32.93,1111122 
SCCF RECON,ioos:station:SCCF:56:1,2017-02-02T17:00:00Z,26.4645,-82.1044,1.245,32.92,1111122 
SCCF RECON,ioos:station:SCCF:56:1,2017-02-02T18:00:00Z,26.4645,-82.1044,1.357,32.64,1111122 
SCCF RECON,ioos:station:SCCF:56:1,2017-02-02T19:00:00Z,26.4645,-82.1044,1.48,32.57,1111122 
SCCF RECON,ioos:station:SCCF:56:1,2017-02-02T20:00:00Z,26.4645,-82.1044,1.57,32.55,1111122 
SCCF RECON,ioos:station:SCCF:56:1,2017-02-02T21:00:00Z,26.4645,-82.1044,1.66,32.49,1111122 
SCCF RECON,ioos:station:SCCF:56:1,2017-02-02T22:00:00Z,26.4645,-82.1044,1.708,32.51,1111122 
SCCF RECON,ioos:station:SCCF:56:1,2017-02-02T23:00:00Z,26.4645,-82.1044,1.71,32.5,1111122 
SCCF RECON,ioos:station:SCCF:56:1,2017-02-03T00:00:00Z,26.4645,-82.1044,1.609,32.49,1111122 
SCCF RECON,ioos:station:SCCF:56:1,2017-02-03T01:00:00Z,26.4645,-82.1044,1.49,32.61,1111122 
SCCF RECON,ioos:station:SCCF:56:1,2017-02-03T02:00:00Z,26.4645,-82.1044,1.38,32.7,1111122 
SCCF RECON,ioos:station:SCCF:56:1,2017-02-03T03:00:00Z,26.4645,-82.1044,1.29,32.78,1111122 
SCCF RECON,ioos:station:SCCF:56:1,2017-02-03T04:00:00Z,26.4645,-82.1044,1.218,32.84,1111122 
SCCF RECON,ioos:station:SCCF:56:1,2017-02-03T05:00:00Z,26.4645,-82.1044,1.17,32.92,1111122 
SCCF RECON,ioos:station:SCCF:56:1,2017-02-03T06:00:00Z,26.4645,-82.1044,1.2,32.92,1111122 
SCCF RECON,ioos:station:SCCF:56:1,2017-02-03T07:00:00Z,26.4645,-82.1044,1.29,32.64,1111122 
SCCF RECON,ioos:station:SCCF:56:1,2017-02-03T08:00:00Z,26.4645,-82.1044,1.38,32.62,1111122 
SCCF RECON,ioos:station:SCCF:56:1,2017-02-03T09:00:00Z,26.4645,-82.1044,1.45,32.61,1111122 
SCCF RECON,ioos:station:SCCF:56:1,2017-02-03T10:00:00Z,26.4645,-82.1044,1.527,32.51,1111122 
SCCF RECON,ioos:station:SCCF:56:1,2017-02-03T11:00:00Z,26.4645,-82.1044,1.56,32.43,1111122 
SCCF RECON,ioos:station:SCCF:56:1,2017-02-03T12:00:00Z,26.4645,-82.1044,1.55,32.53,1111122 
SCCF RECON,ioos:station:SCCF:56:1,2017-02-03T13:00:00Z,26.4645,-82.1044,1.48,32.51,1111122 
SCCF RECON,ioos:station:SCCF:56:1,2017-02-03T14:00:00Z,26.4645,-82.1044,1.401,32.56,1111122 
SCCF RECON,ioos:station:SCCF:56:1,2017-02-03T15:00:00Z,26.4645,-82.1044,1.33,32.67,1111122 
SCCF RECON,ioos:station:SCCF:56:1,2017-02-03T16:00:00Z,26.4645,-82.1044,1.29,32.73,1111122 
SCCF RECON,ioos:station:SCCF:56:1,2017-02-03T17:00:00Z,26.4645,-82.1044,1.294,32.78,1111122 
SCCF RECON,ioos:station:SCCF:56:1,2017-02-03T18:00:00Z,26.4645,-82.1044,1.356,32.32,1111122 
SCCF RECON,ioos:station:SCCF:56:1,2017-02-03T19:00:00Z,26.4645,-82.1044,1.45,32.25,1111122 
SCCF RECON,ioos:station:SCCF:56:1,2017-02-03T20:00:00Z,26.4645,-82.1044,1.563,32.43,1111122 
SCCF RECON,ioos:station:SCCF:56:1,2017-02-03T21:00:00Z,26.4645,-82.1044,1.65,32.52,1111122 
SCCF RECON,ioos:station:SCCF:56:1,2017-02-03T22:00:00Z,26.4645,-82.1044,1.71,32.5,1111122 
SCCF RECON,ioos:station:SCCF:56:1,2017-02-03T23:00:00Z,26.4645,-82.1044,1.74,32.5,1111122 
SCCF RECON,ioos:station:SCCF:56:1,2017-02-04T00:00:00Z,26.4645,-82.1044,1.69,32.49,1111122 
SCCF RECON,ioos:station:SCCF:56:1,2017-02-04T01:00:00Z,26.4645,-82.1044,1.6,32.47,1111122 
SCCF RECON,ioos:station:SCCF:56:1,2017-02-04T02:00:00Z,26.4645,-82.1044,1.48,32.47,1111122 
SCCF RECON,ioos:station:SCCF:56:1,2017-02-04T03:00:00Z,26.4645,-82.1044,1.379,32.55,1111122 
SCCF RECON,ioos:station:SCCF:56:1,2017-02-04T04:00:00Z,26.4645,-82.1044,1.28,32.68,1111122 
SCCF RECON,ioos:station:SCCF:56:1,2017-02-04T05:00:00Z,26.4645,-82.1044,1.19,32.8,1111122 
SCCF RECON,ioos:station:SCCF:56:1,2017-02-04T06:00:00Z,26.4645,-82.1044,1.12,32.83,1111122 
SCCF RECON,ioos:station:SCCF:56:1,2017-02-04T07:00:00Z,26.4645,-82.1044,1.09,32.96,1111122 
SCCF RECON,ioos:station:SCCF:56:1,2017-02-04T08:00:00Z,26.4645,-82.1044,1.16,32.9,1111122 
SCCF RECON,ioos:station:SCCF:56:1,2017-02-04T09:00:00Z,26.4645,-82.1044,1.26,32.7,1111122 
SCCF RECON,ioos:station:SCCF:56:1,2017-02-04T10:00:00Z,26.4645,-82.1044,1.35,32.67,1111122 
SCCF RECON,ioos:station:SCCF:56:1,2017-02-04T11:00:00Z,26.4645,-82.1044,1.419,32.56,1111122 
SCCF RECON,ioos:station:SCCF:56:1,2017-02-04T12:00:00Z,26.4645,-82.1044,1.46,32.54,1111122 
SCCF RECON,ioos:station:SCCF:56:1,2017-02-04T13:00:00Z,26.4645,-82.1044,1.448,32.6,1111122 
SCCF RECON,ioos:station:SCCF:56:1,2017-02-04T14:00:00Z,26.4645,-82.1044,1.4,32.58,1111122 
SCCF RECON,ioos:station:SCCF:56:1,2017-02-04T15:00:00Z,26.4645,-82.1044,1.325,32.68,1111122 
SCCF RECON,ioos:station:SCCF:56:1,2017-02-04T16:00:00Z,26.4645,-82.1044,1.291,32.75,1111122 
SCCF RECON,ioos:station:SCCF:56:1,2017-02-04T17:00:00Z,26.4645,-82.1044,1.279,32.79,1111122 
SCCF RECON,ioos:station:SCCF:56:1,2017-02-04T18:00:00Z,26.4645,-82.1044,1.28,32.78,1111122 
SCCF RECON,ioos:station:SCCF:56:1,2017-02-04T19:00:00Z,26.4645,-82.1044,1.348,32.72,1111122 
SCCF RECON,ioos:station:SCCF:56:1,2017-02-04T20:00:00Z,26.4645,-82.1044,1.429,32.75,1111122 
SCCF RECON,ioos:station:SCCF:56:1,2017-02-04T21:00:00Z,26.4645,-82.1044,1.53,32.96,1111122 
SCCF RECON,ioos:station:SCCF:56:1,2017-02-04T22:00:00Z,26.4645,-82.1044,1.62,33.03,1111122 
SCCF RECON,ioos:station:SCCF:56:1,2017-02-04T23:00:00Z,26.4645,-82.1044,1.69,33.04,1111122 
SCCF RECON,ioos:station:SCCF:56:1,2017-02-05T00:00:00Z,26.4645,-82.1044,1.71,33.07,1111122 
SCCF RECON,ioos:station:SCCF:56:1,2017-02-05T01:00:00Z,26.4645,-82.1044,1.69,32.97,1111122 
SCCF RECON,ioos:station:SCCF:56:1,2017-02-05T02:00:00Z,26.4645,-82.1044,1.61,32.94,1111122 
SCCF RECON,ioos:station:SCCF:56:1,2017-02-05T03:00:00Z,26.4645,-82.1044,1.51,32.93,1111122 
SCCF RECON,ioos:station:SCCF:56:1,2017-02-05T04:00:00Z,26.4645,-82.1044,1.41,32.91,1111122 
SCCF RECON,ioos:station:SCCF:56:1,2017-02-05T05:00:00Z,26.4645,-82.1044,1.3,32.91,1111122 
SCCF RECON,ioos:station:SCCF:56:1,2017-02-05T06:00:00Z,26.4645,-82.1044,1.2,32.99,1111122 
SCCF RECON,ioos:station:SCCF:56:1,2017-02-05T07:00:00Z,26.4645,-82.1044,1.112,33.07,1111122 
SCCF RECON,ioos:station:SCCF:56:1,2017-02-05T08:00:00Z,26.4645,-82.1044,1.06,33.11,1111122 
SCCF RECON,ioos:station:SCCF:56:1,2017-02-05T09:00:00Z,26.4645,-82.1044,1.096,33.11,1111122 
SCCF RECON,ioos:station:SCCF:56:1,2017-02-05T10:00:00Z,26.4645,-82.1044,1.23,33.05,1111122 
SCCF RECON,ioos:station:SCCF:56:1,2017-02-05T11:00:00Z,26.4645,-82.1044,1.36,32.98,1111122 
SCCF RECON,ioos:station:SCCF:56:1,2017-02-05T12:00:00Z,26.4645,-82.1044,1.46,33.0,1111122 
SCCF RECON,ioos:station:SCCF:56:1,2017-02-05T13:00:00Z,26.4645,-82.1044,1.53,32.84,1111122 
SCCF RECON,ioos:station:SCCF:56:1,2017-02-05T14:00:00Z,26.4645,-82.1044,1.55,32.79,1111122 
SCCF RECON,ioos:station:SCCF:56:1,2017-02-05T15:00:00Z,26.4645,-82.1044,1.55,32.88,1111122 
SCCF RECON,ioos:station:SCCF:56:1,2017-02-05T16:00:00Z,26.4645,-82.1044,1.524,32.9,1111122 
SCCF RECON,ioos:station:SCCF:56:1,2017-02-05T17:00:00Z,26.4645,-82.1044,1.48,32.86,1111122 
SCCF RECON,ioos:station:SCCF:56:1,2017-02-05T18:00:00Z,26.4645,-82.1044,1.45,32.9,1111122 
SCCF RECON,ioos:station:SCCF:56:1,2017-02-05T19:00:00Z,26.4645,-82.1044,1.41,32.91,1111122 
SCCF RECON,ioos:station:SCCF:56:1,2017-02-05T20:00:00Z,26.4645,-82.1044,1.43,32.94,1111122 
SCCF RECON,ioos:station:SCCF:56:1,2017-02-05T21:00:00Z,26.4645,-82.1044,1.48,32.94,1111122 
SCCF RECON,ioos:station:SCCF:56:1,2017-02-05T22:00:00Z,26.4645,-82.1044,1.57,32.94,1111122 
SCCF RECON,ioos:station:SCCF:56:1,2017-02-05T23:00:00Z,26.4645,-82.1044,1.675,32.95,1111122 
SCCF RECON,ioos:station:SCCF:56:1,2017-02-06T00:00:00Z,26.4645,-82.1044,1.71,32.74,1111122 
SCCF RECON,ioos:station:SCCF:56:1,2017-02-06T01:00:00Z,26.4645,-82.1044,1.74,32.59,1111122 
SCCF RECON,ioos:station:SCCF:56:1,2017-02-06T02:00:00Z,26.4645,-82.1044,1.7,32.61,1111122 
SCCF RECON,ioos:station:SCCF:56:1,2017-02-06T03:00:00Z,26.4645,-82.1044,1.593,32.57,1111122 
SCCF RECON,ioos:station:SCCF:56:1,2017-02-06T04:00:00Z,26.4645,-82.1044,1.48,32.7,1111122 
SCCF RECON,ioos:station:SCCF:56:1,2017-02-06T05:00:00Z,26.4645,-82.1044,1.368,32.96,1111122 
SCCF RECON,ioos:station:SCCF:56:1,2017-02-06T06:00:00Z,26.4645,-82.1044,1.26,33.04,1111122 
SCCF RECON,ioos:station:SCCF:56:1,2017-02-06T07:00:00Z,26.4645,-82.1044,1.14,33.13,1111122 
SCCF RECON,ioos:station:SCCF:56:1,2017-02-06T08:00:00Z,26.4645,-82.1044,1.02,33.2,1111122 
SCCF RECON,ioos:station:SCCF:56:1,2017-02-06T09:00:00Z,26.4645,-82.1044,0.95,33.28,1111122 
SCCF RECON,ioos:station:SCCF:56:1,2017-02-06T10:00:00Z,26.4645,-82.1044,0.99,33.28,1111122 
SCCF RECON,ioos:station:SCCF:56:1,2017-02-06T11:00:00Z,26.4645,-82.1044,1.13,32.77,1111122 
SCCF RECON,ioos:station:SCCF:56:1,2017-02-06T12:00:00Z,26.4645,-82.1044,1.28,32.69,1111122 
SCCF RECON,ioos:station:SCCF:56:1,2017-02-06T13:00:00Z,26.4645,-82.1044,1.38,32.7,1111122 
SCCF RECON,ioos:station:SCCF:56:1,2017-02-06T14:00:00Z,26.4645,-82.1044,1.472,32.62,1111122 
SCCF RECON,ioos:station:SCCF:56:1,2017-02-06T15:00:00Z,26.4645,-82.1044,1.54,32.65,1111122 
SCCF RECON,ioos:station:SCCF:56:1,2017-02-06T16:00:00Z,26.4645,-82.1044,1.568,32.86,1111122 
SCCF RECON,ioos:station:SCCF:56:1,2017-02-06T17:00:00Z,26.4645,-82.1044,1.56,32.96,1111122 
SCCF RECON,ioos:station:SCCF:56:1,2017-02-06T18:00:00Z,26.4645,-82.1044,1.54,32.99,1111122 
SCCF RECON,ioos:station:SCCF:56:1,2017-02-06T19:00:00Z,26.4645,-82.1044,1.48,32.92,1111122 
SCCF RECON,ioos:station:SCCF:56:1,2017-02-06T20:00:00Z,26.4645,-82.1044,1.43,32.79,1111122 
SCCF RECON,ioos:station:SCCF:56:1,2017-02-06T21:00:00Z,26.4645,-82.1044,1.488,32.7,1111122 
SCCF RECON,ioos:station:SCCF:56:1,2017-02-06T22:00:00Z,26.4645,-82.1044,1.59,31.59,1111122 
SCCF RECON,ioos:station:SCCF:56:1,2017-02-06T23:00:00Z,26.4645,-82.1044,1.69,31.24,1111122 
SCCF RECON,ioos:station:SCCF:56:1,2017-02-07T00:00:00Z,26.4645,-82.1044,1.76,31.13,1111122 
SCCF RECON,ioos:station:SCCF:56:1,2017-02-07T01:00:00Z,26.4645,-82.1044,1.799,31.2,1111122 
SCCF RECON,ioos:station:SCCF:56:1,2017-02-07T02:00:00Z,26.4645,-82.1044,1.82,31.14,1111122 
SCCF RECON,ioos:station:SCCF:56:1,2017-02-07T03:00:00Z,26.4645,-82.1044,1.809,31.21,1111122 
SCCF RECON,ioos:station:SCCF:56:1,2017-02-07T04:00:00Z,26.4645,-82.1044,1.723,31.41,1111122 
SCCF RECON,ioos:station:SCCF:56:1,2017-02-07T05:00:00Z,26.4645,-82.1044,1.61,31.73,1111122 
SCCF RECON,ioos:station:SCCF:56:1,2017-02-07T06:00:00Z,26.4645,-82.1044,1.47,31.84,1111122 
SCCF RECON,ioos:station:SCCF:56:1,2017-02-07T07:00:00Z,26.4645,-82.1044,1.328,32.27,1111122 
SCCF RECON,ioos:station:SCCF:56:1,2017-02-07T08:00:00Z,26.4645,-82.1044,1.197,32.49,1111122 
SCCF RECON,ioos:station:SCCF:56:1,2017-02-07T09:00:00Z,26.4645,-82.1044,1.071,32.66,1111122 
SCCF RECON,ioos:station:SCCF:56:1,2017-02-07T10:00:00Z,26.4645,-82.1044,0.99,32.79,1111122 
SCCF RECON,ioos:station:SCCF:56:1,2017-02-07T11:00:00Z,26.4645,-82.1044,1.02,32.77,1111122 
SCCF RECON,ioos:station:SCCF:56:1,2017-02-07T12:00:00Z,26.4645,-82.1044,1.18,31.74,1111122 
SCCF RECON,ioos:station:SCCF:56:1,2017-02-07T13:00:00Z,26.4645,-82.1044,1.31,31.68,1111122 
SCCF RECON,ioos:station:SCCF:56:1,2017-02-07T14:00:00Z,26.4645,-82.1044,1.43,31.7,1111122 
SCCF RECON,ioos:station:SCCF:56:1,2017-02-07T15:00:00Z,26.4645,-82.1044,1.518,31.77,1111122 
SCCF RECON,ioos:station:SCCF:56:1,2017-02-07T16:00:00Z,26.4645,-82.1044,1.57,31.8,1111122 
SCCF RECON,ioos:station:SCCF:56:1,2017-02-07T17:00:00Z,26.4645,-82.1044,1.571,31.83,1111122 
SCCF RECON,ioos:station:SCCF:56:1,2017-02-07T18:00:00Z,26.4645,-82.1044,1.53,31.83,1111122 
SCCF RECON,ioos:station:SCCF:56:1,2017-02-07T19:00:00Z,26.4645,-82.1044,1.452,31.81,1111122 
SCCF RECON,ioos:station:SCCF:56:1,2017-02-07T20:00:00Z,26.4645,-82.1044,1.395,31.8,1111122 
SCCF RECON,ioos:station:SCCF:56:1,2017-02-07T21:00:00Z,26.4645,-82.1044,1.35,31.82,1111122 
SCCF RECON,ioos:station:SCCF:56:1,2017-02-07T22:00:00Z,26.4645,-82.1044,1.37,31.89,1111122 
SCCF RECON,ioos:station:SCCF:56:1,2017-02-07T23:00:00Z,26.4645,-82.1044,1.472,31.91,1111122 
SCCF RECON,ioos:station:SCCF:56:1,2017-02-08T00:00:00Z,26.4645,-82.1044,1.58,32.1,1111122 
SCCF RECON,ioos:station:SCCF:56:1,2017-02-08T01:00:00Z,26.4645,-82.1044,1.67,32.19,1111122 
SCCF RECON,ioos:station:SCCF:56:1,2017-02-08T02:00:00Z,26.4645,-82.1044,1.732,32.18,1111122 
SCCF RECON,ioos:station:SCCF:56:1,2017-02-08T03:00:00Z,26.4645,-82.1044,1.82,32.21,1111122 
SCCF RECON,ioos:station:SCCF:56:1,2017-02-08T04:00:00Z,26.4645,-82.1044,1.84,32.18,1111122 
SCCF RECON,ioos:station:SCCF:56:1,2017-02-08T05:00:00Z,26.4645,-82.1044,1.774,32.1,1111122 
SCCF RECON,ioos:station:SCCF:56:1,2017-02-08T06:00:00Z,26.4645,-82.1044,1.61,32.16,1111122 
SCCF RECON,ioos:station:SCCF:56:1,2017-02-08T07:00:00Z,26.4645,-82.1044,1.461,32.15,1111122 
SCCF RECON,ioos:station:SCCF:56:1,2017-02-08T08:00:00Z,26.4645,-82.1044,1.35,32.19,1111122 
SCCF RECON,ioos:station:SCCF:56:1,2017-02-08T09:00:00Z,26.4645,-82.1044,1.24,32.22,1111122 
SCCF RECON,ioos:station:SCCF:56:1,2017-02-08T10:00:00Z,26.4645,-82.1044,1.111,32.28,1111122 
SCCF RECON,ioos:station:SCCF:56:1,2017-02-08T11:00:00Z,26.4645,-82.1044,1.03,32.37,1111122 
SCCF RECON,ioos:station:SCCF:56:1,2017-02-08T12:00:00Z,26.4645,-82.1044,1.02,32.44,1111122 
SCCF RECON,ioos:station:SCCF:56:1,2017-02-08T13:00:00Z,26.4645,-82.1044,1.219,32.33,1111122 
SCCF RECON,ioos:station:SCCF:56:1,2017-02-08T14:00:00Z,26.4645,-82.1044,1.44,32.23,1111122 
SCCF RECON,ioos:station:SCCF:56:1,2017-02-08T15:00:00Z,26.4645,-82.1044,1.579,32.38,1111122 
SCCF RECON,ioos:station:SCCF:56:1,2017-02-08T16:00:00Z,26.4645,-82.1044,1.69,32.37,1111122 
SCCF RECON,ioos:station:SCCF:56:1,2017-02-08T17:00:00Z,26.4645,-82.1044,1.68,32.26,1111122 
SCCF RECON,ioos:station:SCCF:56:1,2017-02-08T18:00:00Z,26.4645,-82.1044,1.64,32.33,1111122 
SCCF RECON,ioos:station:SCCF:56:1,2017-02-08T19:00:00Z,26.4645,-82.1044,1.59,32.28,1111122 
SCCF RECON,ioos:station:SCCF:56:1,2017-02-08T20:00:00Z,26.4645,-82.1044,1.53,32.35,1111122 
SCCF RECON,ioos:station:SCCF:56:1,2017-02-08T21:00:00Z,26.4645,-82.1044,1.453,32.4,1111122 
SCCF RECON,ioos:station:SCCF:56:1,2017-02-08T22:00:00Z,26.4645,-82.1044,1.4,32.42,1111122 
SCCF RECON,ioos:station:SCCF:56:1,2017-02-08T23:00:00Z,26.4645,-82.1044,1.399,32.43,1111122 
SCCF RECON,ioos:station:SCCF:56:1,2017-02-09T00:00:00Z,26.4645,-82.1044,1.486,32.37,1111122 
SCCF RECON,ioos:station:SCCF:56:1,2017-02-09T01:00:00Z,26.4645,-82.1044,1.629,32.73,1111122 
SCCF RECON,ioos:station:SCCF:56:1,2017-02-09T02:00:00Z,26.4645,-82.1044,1.746,32.82,1111122 
SCCF RECON,ioos:station:SCCF:56:1,2017-02-09T03:00:00Z,26.4645,-82.1044,1.824,32.9,1111122 
SCCF RECON,ioos:station:SCCF:56:1,2017-02-09T04:00:00Z,26.4645,-82.1044,1.869,32.95,1111122 
SCCF RECON,ioos:station:SCCF:56:1,2017-02-09T05:00:00Z,26.4645,-82.1044,1.84,32.92,1111122 
SCCF RECON,ioos:station:SCCF:56:1,2017-02-09T06:00:00Z,26.4645,-82.1044,1.74,32.84,1111122 
SCCF RECON,ioos:station:SCCF:56:1,2017-02-09T07:00:00Z,26.4645,-82.1044,1.58,32.82,1111122 
SCCF RECON,ioos:station:SCCF:56:1,2017-02-09T08:00:00Z,26.4645,-82.1044,1.414,32.7,1111122 
SCCF RECON,ioos:station:SCCF:56:1,2017-02-09T09:00:00Z,26.4645,-82.1044,1.28,32.63,1111122 
SCCF RECON,ioos:station:SCCF:56:1,2017-02-09T10:00:00Z,26.4645,-82.1044,1.14,32.59,1111122 
SCCF RECON,ioos:station:SCCF:56:1,2017-02-09T11:00:00Z,26.4645,-82.1044,1.02,32.59,1111122 
SCCF RECON,ioos:station:SCCF:56:1,2017-02-09T12:00:00Z,26.4645,-82.1044,0.964,32.61,1111122 
SCCF RECON,ioos:station:SCCF:56:1,2017-02-09T13:00:00Z,26.4645,-82.1044,1.06,32.67,1111122 
SCCF RECON,ioos:station:SCCF:56:1,2017-02-09T14:00:00Z,26.4645,-82.1044,1.239,32.96,1111122 
SCCF RECON,ioos:station:SCCF:56:1,2017-02-09T15:00:00Z,26.4645,-82.1044,1.38,33.03,1111122 
SCCF RECON,ioos:station:SCCF:56:1,2017-02-09T16:00:00Z,26.4645,-82.1044,1.5,33.03,1111122 
SCCF RECON,ioos:station:SCCF:56:1,2017-02-09T17:00:00Z,26.4645,-82.1044,1.612,33.02,1111122 
SCCF RECON,ioos:station:SCCF:56:1,2017-02-09T18:00:00Z,26.4645,-82.1044,1.67,33.04,1111122 
SCCF RECON,ioos:station:SCCF:56:1,2017-02-09T19:00:00Z,26.4645,-82.1044,1.621,32.81,1111122 
SCCF RECON,ioos:station:SCCF:56:1,2017-02-09T20:00:00Z,26.4645,-82.1044,1.51,32.91,1111122 
SCCF RECON,ioos:station:SCCF:56:1,2017-02-09T21:00:00Z,26.4645,-82.1044,1.45,32.96,1111122 
SCCF RECON,ioos:station:SCCF:56:1,2017-02-09T22:00:00Z,26.4645,-82.1044,1.395,32.97,1111122 
SCCF RECON,ioos:station:SCCF:56:1,2017-02-09T23:00:00Z,26.4645,-82.1044,1.34,32.95,1111122 
SCCF RECON,ioos:station:SCCF:56:1,2017-02-10T00:00:00Z,26.4645,-82.1044,1.33,32.94,1111122 
SCCF RECON,ioos:station:SCCF:56:1,2017-02-10T01:00:00Z,26.4645,-82.1044,1.4,32.94,1111122 
SCCF RECON,ioos:station:SCCF:56:1,2017-02-10T02:00:00Z,26.4645,-82.1044,1.55,32.83,1111122 
SCCF RECON,ioos:station:SCCF:56:1,2017-02-10T03:00:00Z,26.4645,-82.1044,1.7,32.77,1111122 
SCCF RECON,ioos:station:SCCF:56:1,2017-02-10T04:00:00Z,26.4645,-82.1044,1.827,32.75,1111122 
SCCF RECON,ioos:station:SCCF:56:1,2017-02-10T05:00:00Z,26.4645,-82.1044,1.83,32.64,1111122 
SCCF RECON,ioos:station:SCCF:56:1,2017-02-10T06:00:00Z,26.4645,-82.1044,1.784,32.75,1111122 
SCCF RECON,ioos:station:SCCF:56:1,2017-02-10T07:00:00Z,26.4645,-82.1044,1.636,32.75,1111122 
SCCF RECON,ioos:station:SCCF:56:1,2017-02-10T08:00:00Z,26.4645,-82.1044,1.476,32.83,1111122 
SCCF RECON,ioos:station:SCCF:56:1,2017-02-10T09:00:00Z,26.4645,-82.1044,1.338,32.89,1111122 
SCCF RECON,ioos:station:SCCF:56:1,2017-02-10T10:00:00Z,26.4645,-82.1044,1.201,32.94,1111122 
SCCF RECON,ioos:station:SCCF:56:1,2017-02-10T11:00:00Z,26.4645,-82.1044,1.05,33.02,1111122 
SCCF RECON,ioos:station:SCCF:56:1,2017-02-10T12:00:00Z,26.4645,-82.1044,0.934,33.14,1111122 
SCCF RECON,ioos:station:SCCF:56:1,2017-02-10T13:00:00Z,26.4645,-82.1044,0.848,33.15,1111122 
SCCF RECON,ioos:station:SCCF:56:1,2017-02-10T14:00:00Z,26.4645,-82.1044,0.874,33.21,1111122 
SCCF RECON,ioos:station:SCCF:56:1,2017-02-10T15:00:00Z,26.4645,-82.1044,1.105,32.73,1111122 
SCCF RECON,ioos:station:SCCF:56:1,2017-02-10T16:00:00Z,26.4645,-82.1044,1.26,32.82,1111122 
SCCF RECON,ioos:station:SCCF:56:1,2017-02-10T17:00:00Z,26.4645,-82.1044,1.369,32.96,1111122 
SCCF RECON,ioos:station:SCCF:56:1,2017-02-10T18:00:00Z,26.4645,-82.1044,1.466,33.04,1111122 
SCCF RECON,ioos:station:SCCF:56:1,2017-02-10T19:00:00Z,26.4645,-82.1044,1.524,33.0,1111122 
SCCF RECON,ioos:station:SCCF:56:1,2017-02-10T20:00:00Z,26.4645,-82.1044,1.5,32.93,1111122 
SCCF RECON,ioos:station:SCCF:56:1,2017-02-10T21:00:00Z,26.4645,-82.1044,1.41,32.89,1111122 
SCCF RECON,ioos:station:SCCF:56:1,2017-02-10T22:00:00Z,26.4645,-82.1044,1.336,32.98,1111122 
SCCF RECON,ioos:station:SCCF:56:1,2017-02-10T23:00:00Z,26.4645,-82.1044,1.33,33.02,1111122 
SCCF RECON,ioos:station:SCCF:56:1,2017-02-11T00:00:00Z,26.4645,-82.1044,1.305,33.03,1111122 
SCCF RECON,ioos:station:SCCF:56:1,2017-02-11T01:00:00Z,26.4645,-82.1044,1.361,32.79,1111122 
SCCF RECON,ioos:station:SCCF:56:1,2017-02-11T02:00:00Z,26.4645,-82.1044,1.504,31.58,1111122 
SCCF RECON,ioos:station:SCCF:56:1,2017-02-11T03:00:00Z,26.4645,-82.1044,1.63,31.53,1111122 
SCCF RECON,ioos:station:SCCF:56:1,2017-02-11T04:00:00Z,26.4645,-82.1044,1.718,31.67,1111122 
SCCF RECON,ioos:station:SCCF:56:1,2017-02-11T05:00:00Z,26.4645,-82.1044,1.79,31.89,1111122 
SCCF RECON,ioos:station:SCCF:56:1,2017-02-11T06:00:00Z,26.4645,-82.1044,1.819,32.14,1111122 
SCCF RECON,ioos:station:SCCF:56:1,2017-02-11T07:00:00Z,26.4645,-82.1044,1.746,32.14,1111122 
SCCF RECON,ioos:station:SCCF:56:1,2017-02-11T08:00:00Z,26.4645,-82.1044,1.59,31.96,1111122 
SCCF RECON,ioos:station:SCCF:56:1,2017-02-11T09:00:00Z,26.4645,-82.1044,1.441,32.08,1111122 
SCCF RECON,ioos:station:SCCF:56:1,2017-02-11T10:00:00Z,26.4645,-82.1044,1.31,32.41,1111122 
SCCF RECON,ioos:station:SCCF:56:1,2017-02-11T11:00:00Z,26.4645,-82.1044,1.196,32.59,1111122 
SCCF RECON,ioos:station:SCCF:56:1,2017-02-11T12:00:00Z,26.4645,-82.1044,1.09,32.8,1111122 
SCCF RECON,ioos:station:SCCF:56:1,2017-02-11T13:00:00Z,26.4645,-82.1044,1.018,32.96,1111122 
SCCF RECON,ioos:station:SCCF:56:1,2017-02-11T14:00:00Z,26.4645,-82.1044,1.08,32.92,1111122 
SCCF RECON,ioos:station:SCCF:56:1,2017-02-11T15:00:00Z,26.4645,-82.1044,1.27,32.18,1111122 
SCCF RECON,ioos:station:SCCF:56:1,2017-02-11T16:00:00Z,26.4645,-82.1044,1.418,32.13,1111122 
SCCF RECON,ioos:station:SCCF:56:1,2017-02-11T17:00:00Z,26.4645,-82.1044,1.527,32.06,1111122 
SCCF RECON,ioos:station:SCCF:56:1,2017-02-11T18:00:00Z,26.4645,-82.1044,1.61,31.98,1111122 